EHI
5 5 7 8 8 7 7 7 7 6 5 2 1 1 1 1 0 1 3 5 6 6 6 7 6 5 4 4 4 5 4 1 0 0 0 0 0 0 0 0 0 0 0
7 9 10 10 10 8 7 7 7 5 4 3 2 1 1 0 0 1 2 4 5 4 4 5 5 4 3 2 3 4 3 2 0 0 0 0 0 0 0 0 0 0 0
10 12 13 13 12 9 8 8 7 5 4 3 3 2 2 1 1 0 1 2 3 3 2 3 5 4 2 1 2 3 2 1 0 0 0 1 1 0 1 1 1 0 0
11 12 14 14 13 9 9 9 7 5 4 3 3 4 3 3 2 1 0 1 1 1 1 3 5 5 4 3 3 2 1 1 0 0 0 1 2 1 1 2 2 1 1
11 11 11 13 11 8 7 8 7 5 4 4 4 4 4 3 3 2 1 0 0 0 1 2 3 4 5 4 3 2 1 1 1 1 0 1 2 1 1 3 3 3 2
9 9 9 10 9 7 6 6 6 5 5 5 5 4 4 4 3 3 2 1 0 0 0 1 2 3 4 4 3 3 2 2 2 2 1 1 2 2 2 3 3 3 3
11 10 9 9 9 8 7 7 6 6 6 6 6 4 4 3 3 3 3 2 1 0 0 0 1 3 3 3 4 5 5 3 2 3 3 3 3 2 3 3 4 4 4
12 11 10 10 11 11 11 10 8 7 6 7 6 5 3 3 2 2 3 3 1 1 0 1 2 4 4 4 6 8 7 5 2 2 2 3 3 3 3 4 4 4 4
11 11 10 11 11 11 12 12 10 8 7 6 6 5 4 4 3 3 3 3 3 2 1 1 3 4 5 5 7 8 8 5 3 1 1 2 3 3 3 3 3 3 4
11 11 11 10 10 9 9 10 10 10 9 7 6 6 6 5 4 3 3 3 3 3 3 3 4 4 4 5 7 7 5 4 2 1 1 1 2 2 1 1 1 2 2
11 10 9 9 8 8 8 9 10 12 12 10 8 8 7 5 4 3 4 4 4 3 4 4 4 4 3 4 5 4 2 1 1 1 0 0 1 1 2 2 2 2 2
13 11 9 9 9 10 10 10 11 12 13 13 12 11 8 5 4 4 5 6 5 4 4 4 4 4 3 3 3 2 0 0 0 0 0 0 1 3 4 3 3 3 3
17 15 13 13 13 12 12 12 13 13 13 14 15 14 10 6 5 6 6 7 6 5 4 4 5 5 5 4 3 1 0 0 0 0 0 0 1 3 4 3 3 3 2
20 18 17 17 16 13 12 13 14 13 12 13 14 15 14 10 7 6 7 7 5 4 3 4 5 6 7 6 3 1 1 0 0 0 0 0 1 1 1 1 2 2 1
20 18 16 16 15 13 11 13 14 12 11 12 13 15 16 13 9 7 7 7 6 4 3 4 4 5 7 6 3 2 1 0 0 0 0 0 0 0 0 0 1 1 0
18 16 13 12 12 11 10 10 11 11 10 11 12 13 14 13 11 8 7 7 6 3 2 4 4 4 5 4 2 1 1 0 0 0 0 0 0 0 0 0 0 0 0
17 14 11 9 9 8 8 8 8 9 10 10 10 10 10 11 11 9 7 6 4 2 1 3 3 3 4 3 2 1 0 0 0 0 0 0 0 0 0 0 0 0 0
16 13 9 8 8 7 7 7 8 9 10 8 7 7 7 7 8 7 6 4 3 1 0 1 2 3 4 4 2 1 0 0 0 0 0 0 0 0 0 0 0 0 0
16 11 7 7 8 7 6 6 8 10 9 7 6 5 4 3 4 4 5 3 2 0 0 0 1 3 4 3 3 2 2 2 1 0 0 0 0 0 0 0 0 0 0
14 11 7 6 7 6 5 4 6 8 7 5 4 3 2 1 1 2 3 2 1 0 1 1 1 2 2 2 3 3 3 3 1 0 0 0 0 0 0 0 0 0 0
14 11 8 5 6 5 3 2 3 4 4 4 3 2 1 0 0 1 2 1 0 1 2 2 1 1 1 1 1 1 2 3 2 1 0 0 0 0 0 0 0 0 0
15 13 10 7 5 4 2 1 1 1 1 2 3 2 1 1 1 1 1 0 0 1 2 2 2 2 3 3 1 1 2 3 3 1 0 0 0 0 1 0 0 0 0
17 15 13 10 7 3 1 0 0 0 0 1 2 2 2 1 1 1 1 1 1 1 2 2 3 3 5 5 4 3 3 3 3 1 0 0 0 0 0 0 0 0 0
17 16 14 12 9 4 1 0 0 0 0 0 1 3 4 2 1 0 1 2 3 2 2 1 2 3 3 4 4 5 4 4 3 2 1 0 0 0 0 0 0 0 0
16 15 14 13 11 7 2 0 0 0 0 1 1 3 4 3 1 0 2 4 5 3 2 1 1 1 1 1 2 3 4 3 3 3 2 1 0 0 0 0 0 0 0
15 14 13 13 12 9 3 0 0 0 1 2 2 3 2 2 1 1 3 5 6 4 2 1 0 0 0 0 0 1 3 3 3 3 3 2 1 0 0 0 0 0 0
Wind_Speed
1 2 1 1 1 2 2 1 1 2 1 2 1 2 1 1 1 1 3 6 5 4 4 4 5 6 6 6 6 7 7 7 7 7 6 6 7 7 7 8 8 8 8
1 1 1 1 1 1 1 1 1 1 1 1 1 1 1 1 1 1 1 5 7 5 3 3 4 6 6 6 6 6 7 7 7 7 6 7 8 8 8 8 8 8 8
1 1 1 1 1 1 2 1 1 1 1 2 2 1 1 1 2 1 1 1 4 7 5 4 5 6 6 7 7 7 7 7 7 7 6 6 8 8 8 8 9 9 9
1 1 1 1 1 1 1 1 1 1 1 1 1 1 1 2 2 2 1 2 1 3 6 5 4 4 5 6 6 6 6 6 7 7 7 6 6 7 8 9 9 9 9
1 1 0 1 1 1 1 1 2 0 1 1 1 1 1 1 1 2 2 1 1 1 2 7 7 5 5 4 4 4 5 5 6 6 6 6 7 6 6 7 7 8 8
0 1 1 1 1 1 1 1 1 1 1 1 1 1 1 1 1 1 2 2 2 2 2 3 5 6 6 5 4 3 4 4 5 6 6 7 7 7 7 8 8 8 9
0 1 1 1 1 1 1 2 2 2 1 1 2 1 2 2 2 1 1 1 2 2 2 2 3 2 4 7 5 4 4 4 4 4 5 6 6 8 8 9 9 10 10
1 1 0 1 1 1 1 1 2 1 1 1 2 2 2 3 2 1 2 2 2 2 2 3 2 2 2 3 5 5 4 4 4 5 5 5 5 6 8 8 9 10 10
0 1 1 1 1 1 1 2 2 3 2 1 1 2 2 0 2 3 2 2 1 1 1 2 3 2 3 2 3 5 4 3 4 5 5 5 4 5 6 7 8 9 9
1 1 1 1 2 1 1 2 2 2 3 2 1 1 2 3 2 1 3 3 2 2 1 2 2 2 3 2 1 2 3 3 4 5 5 5 5 5 5 6 7 8 8
2 1 1 1 2 2 2 2 2 3 2 2 1 1 1 1 3 2 1 1 2 2 2 2 1 1 2 2 2 2 2 2 3 4 4 5 5 5 5 5 5 6 7
2 2 2 2 2 1 1 2 2 3 2 2 2 2 2 2 2 2 2 2 1 1 1 1 1 1 1 2 1 3 2 2 2 3 4 4 4 5 4 4 5 6 6
2 2 2 2 1 1 1 2 2 2 3 3 3 2 2 2 1 2 2 2 1 1 1 1 1 1 1 0 1 2 3 1 1 2 2 3 3 3 3 3 4 4 5
2 2 2 2 2 2 2 2 2 2 2 3 3 2 2 2 1 2 2 2 2 2 2 0 1 0 0 0 2 2 2 3 2 1 1 2 2 2 2 2 2 2 3
3 3 3 2 2 2 2 3 1 2 1 2 2 3 3 2 2 2 2 2 3 2 1 1 0 1 0 1 2 1 1 5 3 2 2 2 2 2 2 1 1 1 1
2 3 3 3 3 3 2 2 2 1 2 2 1 1 2 2 1 2 2 2 2 3 2 0 0 1 1 1 2 1 1 5 4 3 3 2 2 2 1 1 1 1 1
3 3 3 3 2 3 2 2 2 2 2 2 2 1 2 2 2 2 2 2 2 2 2 1 1 2 1 1 1 1 2 2 3 5 4 3 2 1 0 0 0 0 1
3 3 3 3 3 3 2 3 3 2 2 2 2 2 2 1 2 2 2 2 1 2 3 2 1 1 1 1 1 2 1 1 1 6 5 3 3 2 1 1 1 1 1
3 3 3 3 2 2 3 3 3 3 3 2 2 2 2 2 2 1 2 2 2 2 2 3 2 1 1 1 2 2 1 0 1 5 6 5 4 3 2 2 2 2 2
3 3 3 3 3 3 3 3 3 3 2 2 2 3 3 3 3 3 3 3 3 3 3 3 3 2 2 2 2 2 2 2 1 1 2 2 5 6 5 4 3 3 2
3 3 3 4 3 3 2 1 2 2 2 2 2 3 2 1 1 2 3 2 3 3 3 3 3 2 1 2 2 2 1 1 1 1 1 2 2 2 3 4 4 3 2
3 3 4 4 4 2 3 2 2 2 3 3 3 3 3 5 4 4 2 3 4 4 4 4 3 2 2 2 2 3 2 2 1 1 2 2 1 1 1 1 3 4 3
4 4 4 4 3 2 2 1 3 3 3 3 3 4 4 2 5 4 5 6 5 5 5 6 5 4 3 2 3 4 3 3 2 1 2 2 1 1 1 1 5 4 4
4 3 4 4 3 3 4 3 4 5 4 4 4 4 4 3 3 4 5 4 4 3 4 6 4 5 3 2 4 4 3 3 3 3 2 3 2 1 1 1 5 5 5
3 3 4 4 4 3 4 4 5 4 3 4 4 4 4 4 1 3 5 5 4 3 3 3 3 3 2 3 3 4 3 3 3 2 2 3 2 2 1 2 4 7 6
3 4 3 3 3 2 3 4 5 4 3 3 3 3 2 3 1 3 5 4 5 4 3 3 4 5 6 6 6 6 4 4 3 3 1 2 3 2 2 2 2 3 4
Wind_Direction
113 97 103 113 115 119 151 131 86 91 109 129 132 129 133 98 85 86 115 125 135 150 165 167 169 172 174 177 181 185 187 189 190 191 192 196 196 199 198 196 197 196 194
90 117 131 128 117 112 79 90 99 118 103 93 102 109 153 118 95 69 112 130 136 144 156 164 171 177 180 182 186 191 192 193 194 196 198 201 202 204 206 205 205 202 200
119 156 132 155 120 115 118 135 133 136 151 142 131 132 131 110 114 121 142 150 153 152 159 167 176 178 185 186 190 194 195 198 201 203 205 209 209 207 208 209 212 209 204
132 213 163 131 128 142 145 141 162 127 123 158 126 117 103 106 107 127 145 157 164 153 154 158 164 169 178 187 193 195 194 199 201 204 212 215 211 212 213 211 209 208 208
185 228 116 80 172 152 144 160 114 126 145 147 150 139 119 108 128 142 145 156 161 187 174 150 164 168 173 178 187 197 205 206 205 208 215 220 216 213 214 211 210 208 206
182 264 173 157 215 166 153 137 139 158 214 222 247 113 137 139 162 142 186 167 175 195 202 174 176 172 174 180 189 204 211 212 212 215 221 222 216 210 212 212 214 212 210
129 272 274 142 216 172 178 182 190 178 204 223 229 184 165 167 171 176 203 204 176 190 192 195 212 192 173 178 186 212 222 218 218 221 228 229 219 212 215 216 215 214 212
264 221 257 203 178 167 177 195 205 230 229 234 265 256 197 169 172 173 188 200 207 196 190 196 193 198 214 187 162 195 220 224 218 225 232 235 226 223 224 224 221 216 212
250 335 294 267 229 223 193 202 203 217 228 224 276 293 290 256 144 150 183 183 183 201 215 191 200 202 219 224 181 172 197 218 223 228 230 231 234 235 233 226 220 218 212
184 219 251 240 242 230 210 223 202 222 242 236 205 266 309 338 291 160 168 160 172 203 231 251 217 193 215 228 192 147 171 216 227 233 230 226 229 234 231 223 215 215 212
193 215 228 243 235 236 230 246 231 242 241 250 246 233 234 236 266 266 200 168 173 189 203 222 248 238 213 216 218 151 158 206 226 237 238 232 230 228 226 220 211 210 210
188 202 223 229 235 234 231 238 236 227 255 266 261 246 245 248 244 248 242 234 205 165 199 217 226 221 207 208 195 96 148 205 226 238 243 234 231 230 225 221 217 219 222
187 187 217 222 225 215 233 239 239 257 243 243 242 241 243 256 262 257 260 262 253 179 173 193 180 221 201 191 120 125 148 179 209 237 227 211 210 211 216 214 213 219 226
198 187 205 211 222 230 222 222 237 235 241 247 241 237 232 231 235 242 255 263 254 217 177 178 148 120 34 163 77 205 138 130 139 200 191 184 174 175 202 211 214 215 227
201 195 203 209 217 225 232 229 233 256 244 241 232 221 232 209 215 229 243 264 272 267 235 153 161 83 337 72 94 191 138 114 125 118 112 125 139 159 183 199 193 135 152
216 212 217 215 220 219 223 240 228 221 237 242 263 267 256 231 219 222 241 259 270 277 286 59 138 71 24 328 102 206 144 135 148 152 141 131 144 160 160 152 159 156 173
195 205 214 209 214 216 212 223 243 232 235 235 238 219 240 274 245 233 232 238 248 258 254 237 134 101 97 306 82 234 187 190 144 144 142 143 150 151 178 196 222 232 225
202 199 206 207 216 214 209 214 225 229 231 232 231 228 228 216 230 254 252 252 252 261 254 253 227 176 162 183 174 243 205 182 159 137 151 160 167 171 196 228 232 239 234
199 196 200 216 223 224 218 215 217 222 227 235 232 230 240 233 239 249 253 250 245 236 244 244 235 212 213 165 193 203 167 203 221 150 162 167 167 175 193 207 210 210 217
194 193 187 206 221 224 225 223 224 219 222 229 235 236 236 231 225 234 235 242 248 246 233 242 238 216 206 188 221 206 189 180 225 202 134 155 164 181 192 195 194 188 196
196 197 198 207 215 221 227 217 223 222 228 234 235 237 232 241 326 287 283 266 256 257 248 244 239 232 216 212 229 226 217 204 199 234 223 216 193 202 190 187 183 170 167
196 200 209 216 221 223 81 36 282 241 234 235 233 233 219 204 201 216 257 281 279 265 272 267 253 251 250 245 256 252 241 239 241 197 243 254 249 262 265 220 124 145 168
201 211 219 223 223 182 142 189 274 257 243 244 244 244 246 216 226 228 212 214 229 240 249 267 267 264 255 253 260 247 239 258 267 239 246 254 238 247 252 108 131 156 175
204 212 220 219 220 195 170 196 242 241 243 237 240 246 254 248 249 261 253 242 239 226 234 244 259 263 264 264 253 255 250 234 231 225 242 264 245 244 251 146 146 165 177
200 215 219 211 213 185 176 197 231 235 231 239 245 253 252 239 228 282 255 248 249 243 218 218 262 267 280 270 266 251 234 235 241 228 227 268 262 255 249 231 157 166 183
204 213 210 210 212 191 172 195 237 243 235 235 229 232 238 247 221 258 251 248 250 256 258 225 222 226 229 218 215 234 245 245 253 259 212 255 253 254 257 234 211 188 194